Location: Góry Miechowskie
(50.3599°N, 20.1803°E)
Time: 02:22:48
(UTC+00:00)

SR - Pass Details

Date: 18 September 2024
Orbit: 578 x 855 km, 66.7° (Epoch: 04 October)

Event Time Altitude Azimuth Distance (km) Brightness Sun altitude
Rises 21:02:54 0° 308° (NW) 2,969 ? -34.7°
Reaches altitude 10° 21:06:03 10° 285° (WNW) 2,109 ? -35.0°
Enters shadow 21:06:43 12° 278° (W) 1,992 ? -35.0°
